User: anonymous   Login
Location: Franzen
(48.6167°N, 15.3833°E)
Time: 00:37:06
(UTC+00:00)
Language:

Cosmos 2219 - Orbit

View from above orbital plane
View from above orbital plane
View from above satellite
View from above satellite

Ground track
Ground track

The orbit data is extracted from the following two-line orbital elements,

1 22219U 92076A   21169.54154697  .00000050  00000-0  51245-4 0  9996
2 22219  71.0621  22.9507 0019951 311.7728  48.1689 14.13668533474544
Epoch (UTC): 18 June 2021 12:59:49
Eccentricity: 0.0019951
inclination: 71.0621°
perigee height: 832 km
apogee height: 861 km
right ascension of ascending node: 22.9507°
argument of perigee: 311.7728°
revolutions per day: 14.13668533
mean anomaly at epoch: 48.1689°
orbit number at epoch: 47454

The dashed part of the orbit path shows where the satellite is in the earth's shadow,  

DLR